Location: Ballard
(38.3614°N, 94.1431°W)
Time: 16:23:02
(UTC-06:00)

Envisat - Pass Details

Date: 25 October 2019
Orbit: 764 x 766 km, 98.1° (Epoch: 17 November)

Event Time Altitude Azimuth Distance (km) Brightness Sun altitude
Rises 19:22:08 0° 166° (SSE) 3,217 6.2 -11.8°
Reaches altitude 10° 19:24:25 10° 167° (SSE) 2,295 5.4 -12.2°
Maximum altitude 19:29:29 87° 256° (WSW) 772 3.0 -13.2°
Drops below altitude 10° 19:34:36 10° 347° (NNW) 2,309 5.6 -14.2°
Sets 19:36:54 0° 348° (NNW) 3,239 6.4 -14.6°
